Regional Weather Roundup
Issued by NWS Tiyan, Guam

Home | Current Version | Previous Version | Text Only | Print | Product List | Glossary On
Versions: 1 2 3 4 5 6 7 8 9 10 11 12 13 14 15 16 17 18 19 20 21 22 23 24 25 26 27 28 29 30 31 32 33 34 35 36 37 38 39 40 41 42 43 44 45 46 47 48 49 50
883
ASGM40 PGUM 230212
RWRGUM
WEATHER ROUNDUP FOR THE MARIANAS
NATIONAL WEATHER SERVICE TIYAN GU
1200 PM CHST SUN JUL 23 2017

GUZ001>004-230300-
MARIANA ISLANDS-

CITY           SKY/WX    TMP DP  RH WIND       PRES   REMARKS
GUAM AIRPORT   LGT RAIN  82  77  83 E6G22     29.85F HX  91
ANDERSEN AFB   NOT AVBL
ROTA AIRPORT   PTSUNNY   84  77  79 SE8       29.85F HX  94
TINIAN AP      PTSUNNY   86  75  70 SE10      29.83F HX  95
SAIPAN AP      MOSUNNY   91  79  66 SE12      29.84F HX 107

$$





USA.gov is the U.S. government's official web portal to all federal, state and local government web resources and services.